Ketchikan, AK

5:16 PM AKDT on September 24, 2018 (GMT -0800)
Ketchikan International

Weather History for PAKT - December, 2017

Change the Weather History Date:

Tuesday, December 5, 2017

  Actual Average Record
Temperature  
Mean Temperature 45 °F -  
Max Temperature 46 °F 40 °F 60 °F (1959)
Min Temperature 44 °F 31 °F 15 °F (1977)
Degree Days  
Heating Degree Days 20    
Moisture  
Dew Point 44 °F    
Average Humidity 95    
Maximum Humidity 100    
Minimum Humidity 86    
Precipitation  
Precipitation 0.34 in - - ()
Sea Level Pressure  
Sea Level Pressure 30.55 in    
Wind  
Wind Speed 10 mph (SSE)    
Max Wind Speed 15 mph    
Max Gust Speed -    
Visibility 6 miles    
Events Rain    
Averages and records for this station are not official NWS values.
T = Trace of Precipitation, MM = Missing Value Source: NWS Daily Summary

Daily Weather History Graph

Daily Weather History Graph

Search for Another Location

Airport or City:

Astronomy

Dec. 05, 2017 Rise Set
Actual Time 7:56 AM AKST 3:18 PM AKST
Civil Twilight 7:11 AM AKST 4:03 PM AKST
Nautical Twilight 6:24 AM AKST 4:50 PM AKST
Astronomical Twilight 5:39 AM AKST 5:35 PM AKST
Moon 6:03 PM AKST (12/5) 9:51 AM AKST (12/5)
Length of Visible Light 8h 51m
Length of Day
7h 21m
Waning Gibbous, 93% of the Moon is Illuminated
Dec 5
Waning Gibbous
Dec 9
Last Quarter
Dec 17
New
Dec 26
First Quarter
Jan 1
Full

Hourly Weather History & Observations

Time (AKST) Temp. Windchill Dew Point Humidity Pressure Visibility Wind Dir Wind Speed Gust Speed Precip Events Conditions
12:24 AM 44.1 °F 39.0 °F 43.0 °F 96% 30.44 in 2.5 mi SSE 9.2 mph - 0.01 in Rain Light Rain
12:29 AM 44.1 °F 38.6 °F 43.0 °F 96% 30.44 in 2.0 mi SSE 10.4 mph - 0.02 in Rain Light Rain
12:47 AM 44.6 °F 39.7 °F 42.8 °F 93% 30.44 in 3.0 mi SSE 9.2 mph - 0.02 in Rain Light Rain
12:53 AM 44.1 °F 38.6 °F 43.0 °F 96% 30.44 in 4.0 mi SE 10.4 mph - 0.02 in Rain Light Rain
1:22 AM 44.1 °F 40.1 °F 43.0 °F 96% 30.44 in 7.0 mi SSE 6.9 mph - 0.01 in Rain Light Rain
1:53 AM 44.1 °F 39.0 °F 43.0 °F 96% 30.45 in 9.0 mi SSE 9.2 mph - 0.03 in Rain Light Rain
2:53 AM 44.1 °F 40.1 °F 43.0 °F 96% 30.45 in 7.0 mi South 6.9 mph - 0.02 in Rain Light Rain
3:53 AM 44.1 °F 38.6 °F 43.0 °F 96% 30.45 in 9.0 mi South 10.4 mph - 0.01 in Rain Light Rain
4:53 AM 44.1 °F 40.1 °F 43.0 °F 96% 30.47 in 3.0 mi South 6.9 mph - 0.02 in Rain Light Rain
5:41 AM 44.1 °F 40.8 °F 43.0 °F 96% 30.48 in 2.5 mi South 5.8 mph - 0.02 in Rain Light Rain
5:49 AM 44.6 °F 42.2 °F 42.8 °F 93% 30.49 in 3.0 mi South 4.6 mph - 0.03 in Rain Light Rain
5:50 AM 44.1 °F 40.8 °F 43.0 °F 96% 30.49 in 3.0 mi South 5.8 mph - 0.03 in Rain Light Rain
6:53 AM 44.1 °F 40.1 °F 43.0 °F 96% 30.51 in 4.0 mi South 6.9 mph - 0.04 in Rain Light Rain
7:53 AM 44.1 °F 39.0 °F 43.0 °F 96% 30.52 in 6.0 mi SSE 9.2 mph - 0.03 in Rain Light Rain
8:53 AM 45.0 °F 39.7 °F 44.1 °F 97% 30.54 in 10.0 mi SSE 10.4 mph - 0.03 in   Overcast
9:53 AM 46.0 °F 41.0 °F 45.0 °F 96% 30.56 in 10.0 mi SSE 10.4 mph - N/A   Overcast
10:53 AM 46.9 °F - 45.0 °F 93% 30.57 in 10.0 mi SE 11.5 mph - N/A   Overcast
11:53 AM 46.4 °F 40.4 °F 44.6 °F 93% 30.59 in 10.0 mi SE 13.8 mph - N/A   Overcast
12:53 PM 46.4 °F 41.9 °F 44.6 °F 93% 30.60 in 10.0 mi SSE 9.2 mph - N/A   Overcast
1:53 PM 46.4 °F 40.1 °F 44.6 °F 93% 30.61 in 10.0 mi SE 15.0 mph - N/A   Overcast
2:53 PM 46.4 °F 40.4 °F 44.6 °F 93% 30.60 in 10.0 mi SE 13.8 mph - N/A   Overcast
3:53 PM 46.4 °F 41.1 °F 42.8 °F 87% 30.60 in 9.0 mi SSE 11.5 mph - N/A Rain Light Rain
4:53 PM 46.9 °F - 43.0 °F 86% 30.60 in 10.0 mi SSE 10.4 mph - 0.00 in   Overcast
5:53 PM 46.0 °F 39.6 °F 44.1 °F 93% 30.60 in 4.0 mi SE 15.0 mph - 0.00 in Rain Light Rain
6:53 PM 46.0 °F 40.2 °F 44.1 °F 93% 30.60 in 5.0 mi SE 12.7 mph - 0.00 in Rain Light Rain
7:53 PM 45.0 °F 39.3 °F 44.1 °F 97% 30.61 in 3.0 mi SSE 11.5 mph - 0.04 in Rain Light Rain
8:53 PM 45.0 °F 39.3 °F 44.1 °F 97% 30.61 in 3.0 mi SSE 11.5 mph - 0.04 in Rain Light Rain
9:20 PM 45.0 °F 39.7 °F 44.1 °F 97% 30.61 in 3.0 mi SE 10.4 mph - 0.01 in   Overcast
9:48 PM 44.6 °F 39.7 °F 44.6 °F 100% 30.61 in 3.0 mi SE 9.2 mph - 0.01 in Rain Light Rain
9:53 PM 45.0 °F 39.7 °F 44.1 °F 97% 30.61 in 3.0 mi SSE 10.4 mph - 0.01 in Rain Light Rain
10:10 PM 45.0 °F 38.5 °F 44.1 °F 97% 30.61 in 2.0 mi SE 13.8 mph - 0.01 in Rain Light Rain
10:20 PM 45.0 °F 39.3 °F 44.1 °F 97% 30.60 in 4.0 mi SE 11.5 mph - 0.01 in Rain Light Rain
10:29 PM 45.0 °F 39.3 °F 43.0 °F 93% 30.60 in 3.0 mi SE 11.5 mph - 0.01 in Rain Light Rain
10:36 PM 45.0 °F 39.3 °F 43.0 °F 93% 30.61 in 4.0 mi SE 11.5 mph - 0.02 in Rain Light Rain
10:53 PM 44.1 °F 38.6 °F 43.0 °F 96% 30.60 in 4.0 mi SE 10.4 mph - 0.02 in Rain Light Rain
11:35 PM 44.1 °F 40.1 °F 43.0 °F 96% 30.61 in 8.0 mi SSE 6.9 mph - 0.00 in   Overcast
11:53 PM 44.1 °F 40.8 °F 43.0 °F 96% 30.61 in 6.0 mi SE 5.8 mph - 0.00 in   Overcast